Regional Weather Roundup
Issued by NWS

Home | Current Version | Previous Version | Text Only | Print | Product List | Glossary On
Versions: 1 2 3 4 5 6 7 8 9 10 11 12 13 14 15 16 17 18 19 20 21 22 23 24 25 26 27 28 29 30 31 32 33 34 35 36 37 38 39 40 41 42 43 44 45 46 47 48 49 50
000
ASHW40 PHFO 252112
RWRHI

WEATHER ROUNDUP FOR HAWAII
NATIONAL WEATHER SERVICE HONOLULU HI
1100 AM HST THU MAY 25 2017

THIS IS AN AUTOMATED REPORT THAT HAS NOT BEEN QUALITY CONTROLLED.

NOTE..."FAIR" INDICATES FEW OR NO CLOUDS BELOW 12,000 FEET WITH NO
SIGNIFICANT WEATHER AND/OR OBSTRUCTIONS TO VISIBILITY.

* - THESE SITES REPORT LIMITED FIELDS

HIZ001>004-252200-
KAUAI-NIIHAU-

CITY           SKY/WX    TMP DP  RH WIND       PRES   REMARKS
LIHUE APT      FAIR      81  66  60 E10       30.09S
PORT ALLEN*      N/A     81 N/A N/A E14G21      N/A
POIPU*           N/A     81 N/A N/A NE9G15      N/A
PRINCEVILLE*     N/A     77 N/A N/A E9G16       N/A
KOKOLE POINT*  NOT AVBL
MOLOAA DAIRY*    N/A     79  68  69 SE6G15      N/A
WAIMEA HTS*    NOT AVBL
PUU OPAE*      NOT AVBL
PUU LUA*       NOT AVBL
MAKAHA RIDGE*  NOT AVBL
$$

HIZ005>011-252200-
OAHU-

CITY           SKY/WX    TMP DP  RH WIND       PRES   REMARKS
HONOLULU       FAIR      81  63  54 NE12G20   30.05F
KALAELOA       PTSUNNY   83  65  54 SE8       30.06F
KANEOHE MCB    CLOUDY    80  68  66 NE10      30.04F
WHEELER FIELD  PTSUNNY   78  64  62 VRB6      30.06F
BELLOWS*       NOT AVBL
KAHUKU*        NOT AVBL
WHEELER*       NOT AVBL
WAIANAE HARBOR NOT AVBL
DILLINGHAM*      N/A     86  64  48 SW7G17      N/A
KAHUKU TRN*      N/A     82  68  61 W9G20       N/A
KAWAILOA*        N/A     75  64  69 E7G18       N/A
KII*             N/A     81  68  65 E15         N/A
MAKUA RANGE*     N/A     84  66  54 E7G13       N/A
OAHU FOREST NW NOT AVBL
SCHOFIELD BRK*   N/A     77  63  61 MISG        N/A
SCHOFIELD S*   NOT AVBL
WAIANAE VLY*   NOT AVBL
KUAOKALA*      NOT AVBL
HONOULIUULI*   NOT AVBL
MOKUOLOE IS*   NOT AVBL
PALEHUA*       NOT AVBL
WAIAWA PHB*    NOT AVBL
$$

HIZ012>013-252200-
MOLOKAI-

CITY           SKY/WX    TMP DP  RH WIND       PRES   REMARKS
MOLOKAI AIRPT  FAIR      80  67  64 NE14G22   30.06F
KALAUPAPA      NOT AVBL
MAKAPULAPAI*   NOT AVBL
MOLOKAI 1*     NOT AVBL
PUU ALII*      NOT AVBL
$$

HIZ016-252200-
KAHOOLAWE-

CITY           SKY/WX    TMP DP  RH WIND       PRES   REMARKS
KAHOOLAWE*     NOT AVBL
HAKIOAWA*      NOT AVBL
HONOKANAIA*      N/A     83  66  56 E12G22      N/A
KANELOA*         N/A     77  63  61 NE9G22    30.12S
KEALIALALO*    NOT AVBL
LUA MAKIKA*    NOT AVBL
$$

HIZ014>015-252200-
LANAI-

CITY           SKY/WX    TMP DP  RH WIND       PRES   REMARKS
LANAI CITY     CLOUDY    75  65  70 SW7       30.11F
LANAI 1*       NOT AVBL
$$

HIZ017>028-252200-
MAUI-

CITY           SKY/WX    TMP DP  RH WIND       PRES   REMARKS
KAHULUI        FAIR      83  65  54 NE22      30.06S
KAPALUA-W MAUI MOSUNNY   82  61  47 NE17      30.06F
HANA AIRPORT   SUNNY     81  66  61 NE5       30.10F
HANA*            N/A     79 N/A N/A E6G12       N/A
HALEAKALA SUMM   N/A     54  21  28 NW7         N/A
MAALAEA BAY*   NOT AVBL
HALEAKALA*     NOT AVBL
KAUPO GAP*     NOT AVBL
KULA 1*          N/A     57  53  86 W5          N/A
$$

HIZ023>026-252200-
BIG ISLAND OF HAWAII COAST AND LOWER SLOPES-

CITY           SKY/WX    TMP DP  RH WIND       PRES   REMARKS
KAILUA KONA    FAIR      84  67  56 S15       30.02S
HILO           PTSUNNY   79  67  66 N8        30.06F
HONOKAA*         N/A     81 N/A N/A VRB1        N/A
KAWAIHAE MWT*    N/A     81 N/A N/A W6          N/A
KAWAIHAE*      NOT AVBL
SOUTH POINT*     N/A     77 N/A N/A N16G25      N/A
UPOLU AIRPORT* NOT AVBL
KAMUELA*       NOT AVBL
HAKALAU*         N/A     54  53  95 E5          N/A
KALOKO-HONOKO* NOT AVBL
PALI 2*          N/A     77  59  53 SW12G17     N/A
KEALAKOMO*       N/A     84  61  45 NE17G25     N/A
KAUPULEHU*     NOT AVBL
KAPAPALA*        N/A     74  62  66 SW3G10      N/A
LOWER KAHUKU*  NOT AVBL
PUHE CS*       NOT AVBL
PUHO CS*       NOT AVBL
PTA KEAMUKU*     N/A     73  55  53 CALM        N/A
WAIKOLOA*      NOT AVBL
$$

HIZ027>028-252200-
BIG ISLAND OF HAWAII INTERIOR AND SUMMMITS-

CITY           SKY/WX    TMP DP  RH WIND       PRES   REMARKS
BRADSHAW FIELD FAIR      67  48  49 W8        30.33S
MK VISITOR CEN   N/A     54  39  58 SW9         N/A
MAUNA KEA*       N/A     41  14  33 S7          N/A
MAUNA LOA*     NOT AVBL
MAUNA LOA 1*   NOT AVBL
PTA KIPUKA*      N/A     66  48  52 NW10G18     N/A
PTA RANGE 17*    N/A     68  48  49 NW12G18     N/A
PTA WEST*        N/A     72  52  49 NW9G16      N/A
NENE CABIN*    NOT AVBL
AHUMOA*        NOT AVBL
PTA PORTABLE*  NOT AVBL
PUU MALI*        N/A     52  52 100 NE12G17     N/A
$$

HIC003-252200-
NORTHWEST ISLANDS-

CITY           SKY/WX    TMP DP  RH WIND       PRES   REMARKS
MIDWAY ISLAND  PTSUNNY   73  63  68 E22       30.33R
MIDWAY NOS*    NOT AVBL
FRENCH FRIGATE NOT AVBL
$$

PHZ110>124-180-252200-
BUOY REPORTS

STATION/POSITION TIME  TEMP    WIND        PRES    WAVE   SWELL
                       AIR SEA DIR/SP/G            HT/PER HT/DIR
                 (UTC) (F)     (DEG/KT/KT) (MB)    (FT/S) (FT/D)
BUOY 51001       2050   74 77   40/ 17/ 23 1020.6S   8/ 8   5/ 50
BUOY 51101       2050   74 77   50/ 19/ 21 1020.9F   7/ 8   5/ 60
BUOY 51100       NOT AVBL
BUOY 51002       2050   77 78   70/ 14/ 17 1016.0F   6/ 7   5/ 80
BUOY 51003       2050   78 80  110/  8/ 10 1017.3S   7/ 8   7/ 80
BUOY 51004       2050      78   60/ 14/ 16 1016.2F   6/ 8   5/ 20
BARBERS PT BUOY  NOT AVBL
WAIMEA BAY BUOY  2002      78                N/A     5/ 8
KAILUA BAY BUOY  2034      79                N/A     6/ 8   2/ 70
LANAI BUOY       NOT AVBL
BARBERS PT 2     NOT AVBL
PAUWELA MAUI     2039      78                N/A     5/ 8
HILO             2012      79                N/A     5/ 8   2/ 30
KANEOHE BAY BUOY 2055      79                N/A     5/ 8
HANALEI KAUAI    2052      79                N/A     6/ 8
KAHULUI HARBOR   2048   76 79   20/ 14/ 15 1018.2S
HONOLULU HARBOR  2048   80 79   80/  7/ 13 1018.4F
KILO NALU        NOT AVBL
HILO HARBOR      2048   77 78   10/  7/  8 1017.8F
MOKUOLOE         2036   81 79   90/  7/ 11 1018.3F
NAWILIWILI       2048   77      70/ 10/ 13 1018.5S
WHOTS BUOY       NOT AVBL
BUOY 51028       NOT AVBL
$$

......................KEY........................................
  SKY/WX - SKY CONDITIONS/PRESENT WEATHER
  TMP    - TEMPERATURE IN FAHRENHEIT
  DWPT   - DEWPOINT IN FAHRENHEIT
  RH     - RELATIVE HUMIDITY IN PERCENT
  WIND   - DIRECTION AND SPEED /MPH FOR ISLANDS...KTS FOR BUOYS/
  PRES   - MEAN SEA LEVEL PRESSURE IN INCHES OF HG
  VSB    - VISIBILITY IN MILES
  HX     - HEAT INDEX
  WCI    - WIND CHILL INDEX
  VRB    - VARIABLE WIND DIRECTION
  N/A    - NOT AVAILABLE




USA.gov is the U.S. government's official web portal to all federal, state and local government web resources and services.